Moultrie, GA

8:15 PM EST on November 20, 2017 (GMT -0500)
Moultrie Municipal

Weather History for KMGR - June, 2013

Change the Weather History Date:

Wednesday, June 19, 2013

  Actual Average (KMUL) Record (KMUL)
Temperature  
Mean Temperature 82 °F -  
Max Temperature 89 °F 91 °F 100 °F (1933)
Min Temperature 75 °F 68 °F 58 °F (1961)
Cooling Degree Days 17    
Growing Degree Days 32 (Base 50)    
Moisture  
Dew Point 71 °F    
Average Humidity 75    
Maximum Humidity 94    
Minimum Humidity 49    
Precipitation  
Precipitation 0.00 in - - ()
Sea Level Pressure  
Sea Level Pressure 30.00 in    
Wind  
Wind Speed 5 mph (West)    
Max Wind Speed 13 mph    
Max Gust Speed 17 mph    
Visibility 10 miles    
Events Thunderstorm    
Averages and records for this station are not official NWS values.
T = Trace of Precipitation, MM = Missing Value Source: NWS Daily Summary

Daily Weather History Graph

Daily Weather History Graph

Search for Another Location

Airport or City:

Trip Planner

Search our weather history database for the weather conditions in past years. The results will help you decide how hot, cold, wet, or windy it might be!

Date:

Astronomy

Jun. 19, 2013 Rise Set
Actual Time 6:31 AM EDT 8:41 PM EDT
Civil Twilight 6:03 AM EDT 9:09 PM EDT
Nautical Twilight 5:29 AM EDT 9:43 PM EDT
Astronomical Twilight 4:53 AM EDT 10:20 PM EDT
Moon 4:43 PM EDT (6/19) 3:03 AM EDT (6/19)
Length of Visible Light 15h 05m
Length of Day
14h 10m
Waxing Gibbous, 80% of the Moon is Illuminated
Jun 19
Waxing Gibbous
Jun 23
Full
Jun 30
Last Quarter
Jul 8
New
Jul 15
First Quarter

Hourly Weather History & Observations

Time (EDT) Temp. Heat Index Dew Point Humidity Pressure Visibility Wind Dir Wind Speed Gust Speed Precip Events Conditions
12:15 AM 78.8 °F - 69.8 °F 74% 29.98 in 10.0 mi SW 5.8 mph - N/A   Clear
12:35 AM 78.8 °F - 69.8 °F 74% 29.98 in 10.0 mi SW 5.8 mph - N/A   Clear
12:55 AM 78.8 °F - 69.8 °F 74% 29.98 in 10.0 mi SW 6.9 mph - N/A   Clear
1:15 AM 77.0 °F - 69.8 °F 78% 29.98 in 10.0 mi SW 5.8 mph - N/A   Clear
1:35 AM 77.0 °F - 71.6 °F 83% 29.98 in 10.0 mi SW 8.1 mph - N/A   Clear
1:55 AM 77.0 °F - 71.6 °F 83% 29.97 in 10.0 mi SW 6.9 mph - N/A   Clear
2:15 AM 77.0 °F - 71.6 °F 83% 29.97 in 10.0 mi SW 6.9 mph - N/A   Clear
2:35 AM 77.0 °F - 71.6 °F 83% 29.97 in 10.0 mi SW 4.6 mph - N/A   Clear
2:55 AM 77.0 °F - 71.6 °F 83% 29.97 in 10.0 mi SW 4.6 mph - N/A   Clear
3:15 AM 77.0 °F - 71.6 °F 83% 29.97 in 10.0 mi SW 6.9 mph - N/A   Clear
3:35 AM 77.0 °F - 71.6 °F 83% 29.98 in 10.0 mi WSW 5.8 mph - N/A   Clear
3:55 AM 77.0 °F - 73.4 °F 89% 29.97 in 10.0 mi SW 5.8 mph - N/A   Scattered Clouds
4:15 AM 77.0 °F - 73.4 °F 89% 29.97 in 10.0 mi SW 5.8 mph - N/A   Scattered Clouds
4:35 AM 77.0 °F - 73.4 °F 89% 29.97 in 10.0 mi SW 3.5 mph - N/A   Scattered Clouds
4:55 AM 77.0 °F - 73.4 °F 89% 29.97 in 10.0 mi SW 6.9 mph - N/A   Mostly Cloudy
5:15 AM 77.0 °F - 73.4 °F 89% 29.96 in 10.0 mi WSW 4.6 mph - N/A   Mostly Cloudy
5:35 AM 77.0 °F - 73.4 °F 89% 29.96 in 10.0 mi SW 4.6 mph - N/A   Mostly Cloudy
5:55 AM 75.2 °F - 73.4 °F 94% 29.97 in 10.0 mi SW 3.5 mph - N/A   Scattered Clouds
6:15 AM 75.2 °F - 73.4 °F 94% 29.97 in 10.0 mi SW 3.5 mph - N/A   Scattered Clouds
6:35 AM 75.2 °F - 73.4 °F 94% 29.98 in 10.0 mi Calm Calm - N/A   Scattered Clouds
6:55 AM 75.2 °F - 73.4 °F 94% 29.98 in 10.0 mi Calm Calm - N/A   Scattered Clouds
7:15 AM 75.2 °F - 73.4 °F 94% 29.99 in 10.0 mi Calm Calm - N/A   Clear
7:35 AM 75.2 °F - 73.4 °F 94% 30.00 in 10.0 mi SW 4.6 mph - N/A   Scattered Clouds
7:55 AM 77.0 °F - 73.4 °F 89% 30.02 in 10.0 mi WSW 8.1 mph - N/A   Scattered Clouds
8:15 AM 77.0 °F - 73.4 °F 89% 30.02 in 10.0 mi WSW 6.9 mph - N/A   Mostly Cloudy
8:35 AM 77.0 °F - 73.4 °F 89% 30.02 in 10.0 mi West 5.8 mph - N/A   Mostly Cloudy
8:55 AM 78.8 °F - 71.6 °F 78% 30.03 in 10.0 mi West 6.9 mph - N/A   Mostly Cloudy
9:15 AM 78.8 °F - 73.4 °F 83% 30.03 in 10.0 mi West 4.6 mph - N/A   Mostly Cloudy
9:35 AM 78.8 °F - 71.6 °F 78% 30.03 in 10.0 mi WNW 4.6 mph - N/A   Mostly Cloudy
9:55 AM 78.8 °F - 71.6 °F 78% 30.03 in 10.0 mi Calm Calm - N/A   Mostly Cloudy
10:15 AM 80.6 °F 84.6 °F 71.6 °F 74% 30.03 in 10.0 mi West 4.6 mph - N/A   Mostly Cloudy
10:35 AM 82.4 °F 88.2 °F 73.4 °F 74% 30.03 in 10.0 mi West 5.8 mph - N/A   Scattered Clouds
10:55 AM 82.4 °F 87.2 °F 71.6 °F 70% 30.03 in 10.0 mi WSW 5.8 mph - N/A   Clear
11:15 AM 82.4 °F 88.2 °F 73.4 °F 74% 30.03 in 10.0 mi West 8.1 mph - N/A   Scattered Clouds
11:35 AM 84.2 °F 89.6 °F 71.6 °F 66% 30.03 in 10.0 mi WSW 9.2 mph - N/A   Scattered Clouds
11:55 AM 86.0 °F 91.8 °F 71.6 °F 62% 30.03 in 10.0 mi SW 8.1 mph - N/A   Mostly Cloudy
12:15 PM 86.0 °F 91.8 °F 71.6 °F 62% 30.03 in 10.0 mi West 6.9 mph - N/A   Scattered Clouds
12:35 PM 86.0 °F 91.8 °F 71.6 °F 62% 30.03 in 10.0 mi WNW 5.8 mph - N/A   Scattered Clouds
12:55 PM 86.0 °F 91.8 °F 71.6 °F 62% 30.02 in 10.0 mi West 8.1 mph - N/A   Scattered Clouds
1:15 PM 87.8 °F 93.8 °F 71.6 °F 58% 30.02 in 10.0 mi WSW 6.9 mph - N/A   Scattered Clouds
1:55 PM 87.8 °F 92.6 °F 69.8 °F 55% 30.00 in 10.0 mi West 3.5 mph - N/A   Scattered Clouds
2:55 PM 87.8 °F 92.6 °F 69.8 °F 55% 29.98 in 10.0 mi NW 6.9 mph - N/A   Scattered Clouds
3:35 PM 89.6 °F 94.7 °F 69.8 °F 52% 29.97 in 10.0 mi WNW 4.6 mph - N/A Thunderstorm Scattered Clouds
3:55 PM 87.8 °F 92.6 °F 69.8 °F 55% 29.97 in 10.0 mi WNW 5.8 mph - N/A Thunderstorm Scattered Clouds
4:15 PM 86.0 °F 90.4 °F 69.8 °F 58% 29.98 in 10.0 mi NNW 12.7 mph 16.1 mph N/A   Mostly Cloudy
4:35 PM 86.0 °F 90.4 °F 69.8 °F 58% 29.97 in 10.0 mi North 10.4 mph 16.1 mph N/A   Scattered Clouds
4:55 PM 86.0 °F 90.4 °F 69.8 °F 58% 29.97 in 10.0 mi North 8.1 mph - N/A   Clear
5:15 PM 87.8 °F 93.8 °F 71.6 °F 58% 29.97 in 10.0 mi NW 8.1 mph - N/A   Clear
5:35 PM 87.8 °F 93.8 °F 71.6 °F 58% 29.97 in 10.0 mi NNW 8.1 mph - N/A   Clear
5:55 PM 87.8 °F 93.8 °F 71.6 °F 58% 29.96 in 10.0 mi NNW 5.8 mph - N/A   Clear
6:15 PM 87.8 °F 93.8 °F 71.6 °F 58% 29.97 in 10.0 mi WNW 4.6 mph - N/A   Clear
6:35 PM 89.6 °F 93.4 °F 68.0 °F 49% 29.97 in 10.0 mi NW 9.2 mph 17.3 mph N/A   Clear
6:55 PM 87.8 °F 90.4 °F 66.2 °F 49% 29.97 in 10.0 mi NNW 8.1 mph - N/A   Clear
7:15 PM 86.0 °F 90.4 °F 69.8 °F 58% 29.97 in 10.0 mi NW 11.5 mph 17.3 mph N/A   Clear
7:35 PM 82.4 °F 85.4 °F 68.0 °F 62% 29.98 in 10.0 mi NW 8.1 mph - N/A Thunderstorm Clear
7:55 PM 82.4 °F 86.3 °F 69.8 °F 66% 30.00 in 10.0 mi North 6.9 mph - N/A   Clear
8:15 PM 80.6 °F 83.9 °F 69.8 °F 70% 30.00 in 10.0 mi North 4.6 mph - N/A   Clear
8:35 PM 78.8 °F - 69.8 °F 74% 30.00 in 10.0 mi North 5.8 mph - N/A   Clear
8:55 PM 78.8 °F - 69.8 °F 74% 30.02 in 10.0 mi ENE 3.5 mph - N/A   Scattered Clouds
9:15 PM 78.8 °F - 69.8 °F 74% 30.02 in 10.0 mi Calm Calm - N/A   Scattered Clouds
9:35 PM 77.0 °F - 69.8 °F 78% 30.03 in 10.0 mi Calm Calm - N/A   Scattered Clouds
9:55 PM 77.0 °F - 69.8 °F 78% 30.04 in 10.0 mi Calm Calm - N/A   Overcast
10:15 PM 78.8 °F - 71.6 °F 78% 30.04 in 10.0 mi Calm Calm - N/A   Mostly Cloudy
10:35 PM 77.0 °F - 71.6 °F 83% 30.05 in 10.0 mi Calm Calm - N/A   Mostly Cloudy
10:55 PM 77.0 °F - 71.6 °F 83% 30.06 in 10.0 mi Calm Calm - N/A   Mostly Cloudy
11:15 PM 77.0 °F - 71.6 °F 83% 30.06 in 10.0 mi Calm Calm - N/A   Scattered Clouds
11:35 PM 77.0 °F - 71.6 °F 83% 30.06 in 10.0 mi Calm Calm - N/A   Scattered Clouds
11:55 PM 75.2 °F - 71.6 °F 89% 30.06 in 10.0 mi Calm Calm - N/A   Scattered Clouds